Voltar ao catálogo

STARLINK-4253

AtivoComunicaçõesVLEO
NORAD 53004·PAYLOAD·🇺🇸 United States

Lançado Jul 7, 2022 de Cape Canaveral Space Force Station

Loading…

Próximas Passagens (próximas 24 horas)

TLE

AtualizadoSource: CelesTrak SupGP

Época: Sep 14, 2026, 20:36 UTC

1 53004C 22076U   26257.85881944 -.00034815  00000+0 -11197-2 0  2578
2 53004  53.1577 318.0846 0001200  84.9677 213.8974 15.31714431    11

Acompanhe STARLINK-4253 em tempo real com AllMySat

Download on the App Store